This is the latest recevied weather packets stored in our database for station/object N6SPP. If no packets are shown the sender has not sent any weather packets the latest 10 day(s).
| Time | Temp. | Humidity | Pressure | Rain* | Wind** | Luminosity | Snow |
|---|---|---|---|---|---|---|---|
| 1778033211 | 16.11° C | 75% | 1017.5 hPa | 0 mm | - | 28 W/m² | - |
| 1778032909 | 16.11° C | 74% | 1017.5 hPa | 0 mm | - | 31 W/m² | - |
| 1778032607 | 16.11° C | 74% | 1017.6 hPa | 0 mm | - | 31 W/m² | - |
| 1778032303 | 16.67° C | 74% | 1017.4 hPa | 0 mm | - | 34 W/m² | - |
| 1778031996 | 16.67° C | 74% | 1017.6 hPa | 0 mm | - | 47 W/m² | - |
| 1778031691 | 16.67° C | 73% | 1017.5 hPa | 0 mm | - | 53 W/m² | - |
| 1778031389 | 16.67° C | 73% | 1017.4 hPa | 0 mm | - | 62 W/m² | - |
| 1778031086 | 16.67° C | 73% | 1017.5 hPa | 0 mm | - | 74 W/m² | - |
| 1778030781 | 17.22° C | 73% | 1017.3 hPa | 0 mm | - | 89 W/m² | - |
| 1778030478 | 17.22° C | 73% | 1017.4 hPa | 0 mm | - | 101 W/m² | - |
| 1778030176 | 17.22° C | 72% | 1017.2 hPa | 0 mm | - | 110 W/m² | - |
| 1778029872 | 17.22° C | 72% | 1017.4 hPa | 0 mm | - | 117 W/m² | - |
| 1778029566 | 17.22° C | 72% | 1017.3 hPa | 0 mm | - | 120 W/m² | - |
| 1778029263 | 17.78° C | 72% | 1017.5 hPa | 0 mm | - | 115 W/m² | - |
| 1778028959 | 17.78° C | 71% | 1017.4 hPa | 0 mm | - | 147 W/m² | - |
| 1778028655 | 18.89° C | 68% | 1017.1 hPa | 0 mm | - | 187 W/m² | - |
| 1778028347 | 18.33° C | 68% | 1017.3 hPa | 0 mm | - | 204 W/m² | - |
| 1778028044 | 18.33° C | 68% | 1017.2 hPa | 0 mm | - | 250 W/m² | - |
| 1778027740 | 18.33° C | 69% | 1017.4 hPa | 0 mm | - | 215 W/m² | - |
| 1778027437 | 17.78° C | 69% | 1017.2 hPa | 0 mm | - | 295 W/m² | - |
| 1778027132 | 17.78° C | 69% | 1017.3 hPa | 0 mm | - | 143 W/m² | - |
| 1778026828 | 17.78° C | 69% | 1017.1 hPa | 0 mm | - | 140 W/m² | - |
| 1778026525 | 17.78° C | 69% | 1017.1 hPa | 0 mm | - | 188 W/m² | - |
| 1778026222 | 18.33° C | 69% | 1017.1 hPa | 0 mm | - | 220 W/m² | - |
| 1778025920 | 17.78° C | 69% | 1017.2 hPa | 0 mm | - | 242 W/m² | - |
* Rain latest hour (hover to see other rain measurements)
** Current wind speed in m/s (hover to see current wind gust speed)